Weather History for Harrisburg, IL

Change the Weather History Date:

Monday, February 25, 2013

  Actual Average (KMWA) Record (KMWA)
Temperature  
Mean Temperature 41 °F -  
Max Temperature 50 °F 46 °F 68 °F (1976)
Min Temperature 32 °F 27 °F 9 °F (1974)
Degree Days  
Heating Degree Days 24    
Moisture  
Dew Point 30 °F    
Average Humidity 67    
Maximum Humidity 87    
Minimum Humidity 47    
Precipitation  
Precipitation 0.01 in - - ()
Sea Level Pressure  
Sea Level Pressure 29.90 in    
Wind  
Wind Speed 10 mph (ENE)    
Max Wind Speed 20 mph    
Max Gust Speed 31 mph    
Visibility 10 miles    
Events Rain , Thunderstorm    
Averages and records for this station are not official NWS values.
T = Trace of Precipitation, MM = Missing Value Source: NWS Daily Summary

Daily Weather History Graph

Daily Weather History Graph

Search for Another Location

Airport:

Trip Planner

Search our weather history database for the weather conditions in past years. The results will help you decide how hot, cold, wet, or windy it might be!

Date:

Astronomy

Feb. 25, 2013 Rise Set
Actual Time 6:30 AM CST 5:44 PM CST
Civil Twilight 6:04 AM CST 6:10 PM CST
Nautical Twilight 5:33 AM CST 6:40 PM CST
Astronomical Twilight 5:03 AM CST 7:11 PM CST
Moon 5:55 PM CST (2/25) 6:01 AM CST (2/25)
Length of Visible Light 12h 06m
Length of Day
11h 13m
Full, 100% of the Moon is Illuminated
Feb 25
Full
Feb 25
Full
Mar 4
Last Quarter
Mar 11
New
Mar 19
First Quarter

Hourly Weather History & Observations

Time (CST) Temp. Windchill Dew Point Humidity Pressure Visibility Wind Dir Wind Speed Gust Speed Precip Events Conditions
12:15 AM 33.8 °F 27.0 °F 28.4 °F 81% 30.04 in 10.0 mi ENE 8.1 mph - N/A   Clear
12:35 AM 33.8 °F 28.6 °F 28.4 °F 81% 30.04 in 10.0 mi NE 5.8 mph - N/A   Clear
12:55 AM 33.8 °F 29.6 °F 28.4 °F 81% 30.05 in 10.0 mi ENE 4.6 mph - N/A   Clear
1:15 AM 32.0 °F - 28.4 °F 87% 30.06 in 10.0 mi Calm Calm - N/A   Clear
1:35 AM 32.0 °F 27.5 °F 28.4 °F 87% 30.07 in 10.0 mi East 4.6 mph - N/A   Clear
1:55 AM 32.0 °F 27.5 °F 28.4 °F 87% 30.06 in 10.0 mi ENE 4.6 mph - N/A   Clear
2:15 AM 32.0 °F 27.5 °F 28.4 °F 87% 30.06 in 10.0 mi ENE 4.6 mph - N/A   Clear
2:35 AM 32.0 °F 28.7 °F 28.4 °F 87% 30.06 in 10.0 mi ENE 3.5 mph - N/A   Clear
2:55 AM 32.0 °F 27.5 °F 26.6 °F 80% 30.06 in 10.0 mi NE 4.6 mph - N/A   Clear
3:15 AM 32.0 °F 27.5 °F 26.6 °F 80% 30.05 in 10.0 mi NE 4.6 mph - N/A   Clear
3:35 AM 32.0 °F 26.4 °F 28.4 °F 87% 30.06 in 10.0 mi ENE 5.8 mph - N/A   Clear
3:55 AM 33.8 °F 28.6 °F 28.4 °F 81% 30.06 in 10.0 mi ENE 5.8 mph - N/A   Clear
4:15 AM 32.0 °F 26.4 °F 28.4 °F 87% 30.06 in 10.0 mi East 5.8 mph - N/A   Clear
4:35 AM 32.0 °F 25.6 °F 28.4 °F 87% 30.06 in 10.0 mi ENE 6.9 mph - N/A   Clear
4:55 AM 32.0 °F 24.8 °F 28.4 °F 87% 30.06 in 10.0 mi ENE 8.1 mph - N/A   Clear
5:15 AM 32.0 °F 24.8 °F 28.4 °F 87% 30.05 in 10.0 mi NE 8.1 mph - N/A   Clear
5:35 AM 32.0 °F 24.8 °F 28.4 °F 87% 30.04 in 10.0 mi NE 8.1 mph - N/A   Clear
5:55 AM 32.0 °F 24.8 °F 26.6 °F 80% 30.03 in 10.0 mi NE 8.1 mph - N/A   Clear
6:15 AM 32.0 °F 24.8 °F 28.4 °F 87% 30.03 in 10.0 mi ENE 8.1 mph - N/A   Clear
6:35 AM 32.0 °F 24.8 °F 28.4 °F 87% 30.03 in 10.0 mi East 8.1 mph - N/A   Clear
6:55 AM 33.8 °F 25.8 °F 28.4 °F 81% 30.03 in 10.0 mi East 10.4 mph - N/A   Clear
7:15 AM 33.8 °F 26.4 °F 28.4 °F 81% 30.03 in 10.0 mi East 9.2 mph - N/A   Clear
7:35 AM 33.8 °F 24.8 °F 28.4 °F 81% 30.03 in 10.0 mi East 12.7 mph - N/A   Clear
7:55 AM 33.8 °F 25.8 °F 28.4 °F 81% 30.03 in 10.0 mi East 10.4 mph - N/A   Clear
8:15 AM 33.8 °F 24.8 °F 28.4 °F 81% 30.02 in 10.0 mi East 12.7 mph - N/A   Clear
8:35 AM 35.6 °F 26.6 °F 30.2 °F 81% 30.03 in 10.0 mi East 13.8 mph - N/A   Clear
8:55 AM 37.4 °F 31.4 °F 30.2 °F 75% 30.04 in 10.0 mi ESE 8.1 mph - N/A   Clear
9:15 AM 37.4 °F 29.3 °F 30.2 °F 75% 30.04 in 10.0 mi East 12.7 mph - N/A   Clear
9:35 AM 39.2 °F 31.6 °F 30.2 °F 70% 30.03 in 10.0 mi East 12.7 mph - N/A   Clear
9:55 AM 41.0 °F 33.1 °F 32.0 °F 70% 30.02 in 10.0 mi East 15.0 mph 19.6 mph N/A   Clear
10:15 AM 42.8 °F 34.8 °F 30.2 °F 61% 30.01 in 10.0 mi East 17.3 mph - N/A   Clear
10:35 AM 42.8 °F 36.6 °F 32.0 °F 66% 30.00 in 10.0 mi East 11.5 mph 23.0 mph N/A   Clear
10:55 AM 44.6 °F 37.2 °F 32.0 °F 61% 30.00 in 10.0 mi East 17.3 mph - N/A   Clear
11:15 AM 44.6 °F 38.4 °F 32.0 °F 61% 30.00 in 10.0 mi East 12.7 mph - N/A   Clear
11:35 AM 46.4 °F 41.1 °F 32.0 °F 57% 29.99 in 10.0 mi East 11.5 mph - N/A   Clear
11:55 AM 46.4 °F 40.7 °F 32.0 °F 57% 29.97 in 10.0 mi East 12.7 mph - N/A   Clear
12:15 PM 46.4 °F 40.1 °F 32.0 °F 57% 29.96 in 10.0 mi East 15.0 mph 20.7 mph N/A   Clear
12:35 PM 46.4 °F 41.1 °F 32.0 °F 57% 29.94 in 10.0 mi East 11.5 mph - N/A   Clear
12:55 PM 46.4 °F 40.7 °F 32.0 °F 57% 29.92 in 10.0 mi ENE 12.7 mph 19.6 mph N/A   Clear
1:15 PM 46.4 °F 39.5 °F 32.0 °F 57% 29.89 in 10.0 mi ENE 17.3 mph - N/A   Clear
1:35 PM 46.4 °F 39.2 °F 32.0 °F 57% 29.88 in 10.0 mi ENE 18.4 mph 23.0 mph N/A   Clear
1:55 PM 50.0 °F - 32.0 °F 50% 29.88 in 10.0 mi East 16.1 mph 26.5 mph N/A   Clear
2:15 PM 50.0 °F - 30.2 °F 47% 29.87 in 10.0 mi ENE 17.3 mph 21.9 mph N/A   Clear
2:35 PM 50.0 °F - 32.0 °F 50% 29.87 in 10.0 mi East 13.8 mph - N/A   Clear
2:55 PM 50.0 °F - 32.0 °F 50% 29.85 in 10.0 mi ENE 16.1 mph 20.7 mph N/A   Clear
3:15 PM 48.2 °F - 32.0 °F 54% 29.83 in 10.0 mi ENE 19.6 mph - N/A   Clear
3:35 PM 48.2 °F - 32.0 °F 54% 29.83 in 10.0 mi ENE 15.0 mph 19.6 mph N/A   Clear
3:55 PM 50.0 °F - 32.0 °F 50% 29.83 in 10.0 mi ENE 13.8 mph 20.7 mph N/A   Scattered Clouds
4:15 PM 48.2 °F - 32.0 °F 54% 29.81 in 10.0 mi ENE 15.0 mph 21.9 mph N/A   Scattered Clouds
4:35 PM 48.2 °F - 30.2 °F 50% 29.79 in 10.0 mi ENE 16.1 mph - N/A   Scattered Clouds
4:55 PM 46.4 °F 40.4 °F 30.2 °F 53% 29.78 in 10.0 mi ENE 13.8 mph 17.3 mph N/A   Scattered Clouds
5:15 PM 46.4 °F 39.8 °F 30.2 °F 53% 29.76 in 10.0 mi ENE 16.1 mph 21.9 mph N/A   Mostly Cloudy
5:35 PM 46.4 °F 40.1 °F 30.2 °F 53% 29.74 in 10.0 mi ENE 15.0 mph 20.7 mph N/A   Overcast
5:55 PM 46.4 °F 39.5 °F 30.2 °F 53% 29.75 in 10.0 mi ENE 17.3 mph 21.9 mph N/A   Overcast
6:15 PM 46.4 °F 40.4 °F 30.2 °F 53% 29.76 in 10.0 mi ENE 13.8 mph - N/A   Overcast
6:35 PM 46.4 °F 40.1 °F 30.2 °F 53% 29.76 in 10.0 mi ENE 15.0 mph 20.7 mph N/A   Overcast
6:55 PM 46.4 °F 40.1 °F 30.2 °F 53% 29.76 in 10.0 mi ENE 15.0 mph 23.0 mph N/A   Overcast
7:15 PM 46.4 °F 40.7 °F 30.2 °F 53% 29.75 in 10.0 mi ENE 12.7 mph 21.9 mph N/A   Overcast
7:35 PM 44.6 °F 37.4 °F 30.2 °F 57% 29.73 in 10.0 mi ENE 16.1 mph 23.0 mph N/A   Overcast
7:55 PM 44.6 °F 38.1 °F 30.2 °F 57% 29.73 in 10.0 mi ENE 13.8 mph 24.2 mph N/A   Overcast
8:15 PM 44.6 °F 37.4 °F 30.2 °F 57% 29.72 in 10.0 mi ENE 16.1 mph 21.9 mph N/A   Overcast
8:35 PM 44.6 °F 36.9 °F 28.4 °F 53% 29.68 in 10.0 mi ENE 18.4 mph 23.0 mph N/A   Mostly Cloudy
8:55 PM 44.6 °F 37.2 °F 30.2 °F 57% 29.68 in 10.0 mi ENE 17.3 mph - N/A Thunderstorm Scattered Clouds
9:15 PM 44.6 °F 36.6 °F 30.2 °F 57% 29.65 in 10.0 mi ENE 19.6 mph 27.6 mph N/A   Clear
9:35 PM 44.6 °F 36.9 °F 30.2 °F 57% 29.65 in 10.0 mi ENE 18.4 mph 24.2 mph N/A   Mostly Cloudy
9:55 PM 44.6 °F 37.2 °F 28.4 °F 53% 29.64 in 10.0 mi East 17.3 mph 25.3 mph N/A   Overcast
10:15 PM 44.6 °F 36.9 °F 30.2 °F 57% 29.63 in 10.0 mi East 18.4 mph 26.5 mph N/A   Overcast
10:35 PM 44.6 °F 36.6 °F 30.2 °F 57% 29.62 in 10.0 mi East 19.6 mph 25.3 mph N/A   Overcast
10:55 PM 44.6 °F 37.2 °F 28.4 °F 53% 29.60 in 10.0 mi East 17.3 mph 31.1 mph N/A   Overcast
11:15 PM 44.6 °F 36.6 °F 30.2 °F 57% 29.58 in 10.0 mi East 19.6 mph 24.2 mph N/A   Overcast
11:35 PM 44.6 °F 36.6 °F 30.2 °F 57% 29.56 in 10.0 mi East 19.6 mph 26.5 mph N/A   Overcast
11:55 PM 42.8 °F 35.1 °F 32.0 °F 66% 29.57 in 10.0 mi East 16.1 mph 23.0 mph 0.01 in Rain Rain